UAE92J GCFV-EGCC

Flight info

Callsign UAE92J
Flight time 3h 50m
Altitude 38000
Route VASTO DCT NIDEB DCT TIGGI DCT OLBOD DCT IBIDO DCT XERES DCT ADVAT/M076F390 T290 GELPO DCT JABEX/N0436F390 DCT BIBLA DCT SOVIX DCT KOMER DCT BOFUM Q37 MALUD
Aircraft A20N/M-SDE2E3FGHIRWXY/LB1

Departure

Time 2026-05-06 19:12
Airport Fuerteventura Airport (GCFV)

Arrival

Time 2026-05-06 23:03
Airport Manchester Airport (EGCC)
Time Latitude Longitude Altitude Speed Heading
2026-05-06 18:35 28.45606 -13.86816 83 ft 0 kts 270°
2026-05-06 18:50 28.45606 -13.86808 83 ft 3 kts 270°
2026-05-06 18:50 28.45606 -13.86783 86 ft 3 kts 270°
2026-05-06 18:50 28.45607 -13.86759 88 ft 3 kts 265°
2026-05-06 18:51 28.45607 -13.86748 88 ft 0 kts 249°
2026-05-06 18:52 28.45615 -13.86732 85 ft 3 kts 215°
2026-05-06 18:52 28.45623 -13.86728 87 ft 0 kts 173°
2026-05-06 19:03 28.45608 -13.86728 87 ft 6 kts 178°
2026-05-06 19:03 28.45593 -13.86728 82 ft 0 kts 182°
2026-05-06 19:04 28.45584 -13.86728 82 ft 6 kts 183°
2026-05-06 19:04 28.45513 -13.86735 84 ft 14 kts 181°
2026-05-06 19:04 28.45401 -13.86734 68 ft 18 kts 173°
2026-05-06 19:05 28.45373 -13.86697 74 ft 5 kts 92°
2026-05-06 19:05 28.45370 -13.86639 77 ft 10 kts 90°
2026-05-06 19:05 28.45337 -13.86569 66 ft 12 kts 165°
2026-05-06 19:05 28.45241 -13.86570 71 ft 16 kts 181°
2026-05-06 19:06 28.45115 -13.86574 66 ft 20 kts 183°
2026-05-06 19:06 28.44964 -13.86577 67 ft 23 kts 180°
2026-05-06 19:06 28.44790 -13.86584 62 ft 27 kts 181°
2026-05-06 19:06 28.44596 -13.86588 57 ft 29 kts 181°
2026-05-06 19:07 28.44380 -13.86594 51 ft 32 kts 181°
2026-05-06 19:07 28.44151 -13.86606 43 ft 34 kts 182°
2026-05-06 19:07 28.43902 -13.86619 37 ft 36 kts 182°
2026-05-06 19:07 28.43645 -13.86621 32 ft 37 kts 179°
2026-05-06 19:08 28.43400 -13.86628 29 ft 19 kts 179°
2026-05-06 19:08 28.43359 -13.86553 26 ft 6 kts 61°
2026-05-06 19:08 28.43360 -13.86552 26 ft 0 kts 54°
2026-05-06 19:10 28.43368 -13.86540 26 ft 5 kts 53°
2026-05-06 19:11 28.43397 -13.86497 27 ft 8 kts 53°
2026-05-06 19:11 28.43437 -13.86442 28 ft 9 kts 33°
2026-05-06 19:11 28.43475 -13.86432 29 ft 0 kts 359°
2026-05-06 19:11 28.43476 -13.86432 29 ft 2 kts 359°
2026-05-06 19:12 28.43763 -13.86427 34 ft 85 kts
2026-05-06 19:12 28.44611 -13.86400 52 ft 154 kts
2026-05-06 19:12 28.45789 -13.86357 520 ft 176 kts
2026-05-06 19:12 28.46997 -13.86044 1323 ft 183 kts 31°
2026-05-06 19:13 28.47961 -13.85072 2063 ft 189 kts 45°
2026-05-06 19:13 28.48928 -13.84054 2844 ft 192 kts 38°
2026-05-06 19:13 28.50035 -13.83191 3633 ft 194 kts 30°
2026-05-06 19:13 28.51228 -13.82462 4422 ft 196 kts 26°
2026-05-06 19:14 28.52481 -13.81788 4857 ft 201 kts 24°
2026-05-06 19:14 28.53761 -13.81132 4992 ft 201 kts 24°
2026-05-06 19:14 28.55032 -13.80485 5008 ft 201 kts 24°
2026-05-06 19:14 28.56313 -13.79832 5073 ft 207 kts 24°
2026-05-06 19:15 28.57725 -13.79110 5192 ft 235 kts 24°
2026-05-06 19:15 28.59284 -13.78309 5660 ft 257 kts 24°
2026-05-06 19:15 28.60998 -13.77427 6303 ft 272 kts 24°
2026-05-06 19:15 28.62734 -13.76533 7217 ft 276 kts 24°
2026-05-06 19:16 28.64500 -13.75623 8132 ft 280 kts 24°
2026-05-06 19:16 28.66286 -13.74702 9040 ft 283 kts 24°
2026-05-06 19:16 28.68074 -13.73782 9901 ft 287 kts 24°
2026-05-06 19:16 28.69953 -13.72815 10558 ft 301 kts 24°
2026-05-06 19:17 28.71945 -13.71800 10890 ft 324 kts 24°
2026-05-06 19:17 28.74059 -13.70726 11332 ft 340 kts 24°
2026-05-06 19:17 28.75500 -13.69994 11854 ft 343 kts 24°
2026-05-06 19:17 28.78413 -13.68512 12910 ft 348 kts 24°
2026-05-06 19:18 28.80616 -13.67390 13667 ft 352 kts 24°
2026-05-06 19:18 28.82874 -13.66238 14409 ft 356 kts 24°
2026-05-06 19:18 28.84428 -13.65445 14912 ft 359 kts 24°
2026-05-06 19:18 28.86718 -13.64276 15627 ft 363 kts 24°
2026-05-06 19:19 28.89047 -13.63087 16320 ft 366 kts 24°
2026-05-06 19:19 28.91402 -13.61884 16996 ft 370 kts 24°
2026-05-06 19:19 28.93780 -13.60725 17631 ft 374 kts 17°
2026-05-06 19:19 28.96243 -13.60256 18239 ft 377 kts 359°
2026-05-06 19:20 28.98628 -13.60626 18760 ft 380 kts 343°
2026-05-06 19:20 29.01072 -13.61799 19352 ft 384 kts 333°
2026-05-06 19:20 29.03503 -13.63147 19953 ft 387 kts 335°
2026-05-06 19:20 29.05993 -13.64374 20549 ft 391 kts 338°
2026-05-06 19:21 29.08548 -13.65489 21146 ft 393 kts 340°
2026-05-06 19:21 29.11143 -13.66541 21726 ft 396 kts 340°
2026-05-06 19:21 29.13759 -13.67572 22267 ft 400 kts 341°
2026-05-06 19:21 29.16434 -13.68510 22782 ft 404 kts 349°
2026-05-06 19:22 29.19234 -13.68714 23286 ft 407 kts
2026-05-06 19:22 29.22070 -13.68396 23781 ft 410 kts
2026-05-06 19:22 29.24934 -13.68082 24278 ft 413 kts
2026-05-06 19:22 29.27788 -13.67806 24773 ft 416 kts
2026-05-06 19:23 29.30724 -13.67546 25231 ft 419 kts
2026-05-06 19:23 29.33644 -13.67297 25676 ft 422 kts
2026-05-06 19:23 29.36481 -13.67058 26098 ft 425 kts
2026-05-06 19:23 29.39477 -13.66806 26525 ft 428 kts
2026-05-06 19:24 29.42460 -13.66554 26930 ft 431 kts
2026-05-06 19:24 29.45441 -13.66302 27327 ft 433 kts
2026-05-06 19:24 29.48482 -13.66045 27708 ft 436 kts
2026-05-06 19:24 29.51528 -13.65787 28076 ft 439 kts
2026-05-06 19:25 29.54569 -13.65529 28433 ft 441 kts
2026-05-06 19:25 29.57631 -13.65270 28764 ft 443 kts
2026-05-06 19:25 29.60723 -13.65007 29094 ft 446 kts
2026-05-06 19:25 29.63808 -13.64745 29409 ft 448 kts
2026-05-06 19:26 29.66943 -13.64479 29719 ft 450 kts
2026-05-06 19:26 29.70025 -13.64217 30031 ft 452 kts
2026-05-06 19:26 29.73208 -13.63946 30332 ft 454 kts
2026-05-06 19:26 29.76336 -13.63680 30631 ft 456 kts
2026-05-06 19:27 29.79556 -13.63405 30935 ft 459 kts
2026-05-06 19:27 29.82736 -13.63134 31263 ft 460 kts
2026-05-06 19:27 29.85872 -13.62867 31639 ft 459 kts
2026-05-06 19:27 29.89057 -13.62595 32034 ft 458 kts
2026-05-06 19:28 29.92287 -13.62319 32417 ft 457 kts
2026-05-06 19:28 29.95474 -13.62047 32779 ft 457 kts
2026-05-06 19:28 29.98638 -13.61776 33127 ft 456 kts
2026-05-06 19:28 30.01810 -13.61504 33467 ft 455 kts
2026-05-06 19:29 30.04963 -13.61234 33791 ft 455 kts
2026-05-06 19:29 30.08179 -13.60959 34111 ft 454 kts
2026-05-06 19:29 30.11304 -13.60691 34410 ft 453 kts
2026-05-06 19:29 30.14485 -13.60418 34706 ft 453 kts
2026-05-06 19:30 30.17612 -13.60150 34986 ft 452 kts
2026-05-06 19:30 30.20762 -13.59879 35268 ft 451 kts
2026-05-06 19:30 30.23897 -13.59610 35526 ft 451 kts
2026-05-06 19:30 30.27007 -13.59342 35783 ft 450 kts
2026-05-06 19:31 30.30165 -13.59071 36021 ft 450 kts
2026-05-06 19:31 30.33277 -13.58802 36251 ft 449 kts
2026-05-06 19:31 30.39457 -13.58270 36420 ft 456 kts
2026-05-06 19:32 30.45664 -13.57734 36489 ft 463 kts
2026-05-06 19:32 30.51861 -13.56282 36619 ft 467 kts 19°
2026-05-06 19:33 30.54801 -13.54855 36738 ft 467 kts 26°
2026-05-06 19:33 30.57690 -13.53014 36865 ft 467 kts 28°
2026-05-06 19:33 30.60521 -13.51231 36992 ft 467 kts 28°
2026-05-06 19:33 30.63370 -13.49468 37119 ft 467 kts 28°
2026-05-06 19:34 30.69109 -13.45901 37195 ft 470 kts 28°
2026-05-06 19:34 30.74851 -13.42301 37273 ft 472 kts 28°
2026-05-06 19:35 30.80490 -13.38754 37410 ft 472 kts 28°
2026-05-06 19:35 30.86017 -13.35272 37542 ft 472 kts 28°
2026-05-06 19:36 30.91696 -13.31690 37669 ft 472 kts 28°
2026-05-06 19:36 30.97465 -13.28048 37793 ft 472 kts 28°
2026-05-06 19:37 31.03234 -13.24399 37909 ft 472 kts 28°
2026-05-06 19:37 31.08060 -13.21343 38004 ft 472 kts 28°
2026-05-06 19:38 31.14787 -13.17077 37992 ft 472 kts 28°
2026-05-06 19:38 31.20556 -13.13415 37987 ft 472 kts 28°
2026-05-06 19:39 31.26296 -13.09766 37969 ft 471 kts 28°
2026-05-06 19:39 31.32085 -13.06082 37993 ft 471 kts 28°
2026-05-06 19:40 31.36817 -13.03065 38010 ft 470 kts 28°
2026-05-06 19:40 31.42613 -12.99364 37958 ft 471 kts 28°
2026-05-06 19:41 31.48358 -12.95691 37993 ft 471 kts 28°
2026-05-06 19:41 31.54116 -12.92004 38028 ft 470 kts 28°
2026-05-06 19:42 31.59867 -12.88316 38027 ft 470 kts 28°
2026-05-06 19:42 31.65659 -12.84597 37993 ft 470 kts 28°
2026-05-06 19:43 31.71316 -12.80959 37972 ft 471 kts 28°
2026-05-06 19:43 31.77020 -12.77286 38011 ft 471 kts 28°
2026-05-06 19:44 31.82754 -12.73589 38033 ft 470 kts 28°
2026-05-06 19:44 31.88500 -12.69878 38017 ft 470 kts 28°
2026-05-06 19:45 31.94209 -12.66186 37970 ft 471 kts 28°
2026-05-06 19:45 31.99999 -12.62436 37983 ft 471 kts 28°
2026-05-06 19:46 32.05781 -12.58686 38044 ft 470 kts 28°
2026-05-06 19:46 32.11104 -12.55228 37951 ft 470 kts 28°
2026-05-06 19:47 32.16354 -12.51813 38032 ft 470 kts 28°
2026-05-06 19:47 32.22155 -12.48036 38026 ft 470 kts 28°
2026-05-06 19:48 32.27885 -12.44299 38021 ft 470 kts 28°
2026-05-06 19:48 32.33646 -12.40536 38021 ft 471 kts 28°
2026-05-06 19:49 32.39400 -12.36773 38021 ft 471 kts 28°
2026-05-06 19:49 32.45145 -12.33013 38020 ft 471 kts 28°
2026-05-06 19:50 32.50880 -12.29252 38027 ft 471 kts 28°
2026-05-06 19:50 32.56646 -12.25464 38017 ft 470 kts 28°
2026-05-06 19:51 32.62346 -12.21714 38000 ft 470 kts 28°
2026-05-06 19:51 32.68046 -12.17957 37996 ft 471 kts 29°
2026-05-06 19:52 32.73771 -12.14177 38003 ft 471 kts 29°
2026-05-06 19:52 32.79515 -12.10377 38013 ft 471 kts 29°
2026-05-06 19:53 32.85253 -12.06578 38011 ft 472 kts 29°
2026-05-06 19:53 32.90924 -12.02818 38007 ft 472 kts 29°
2026-05-06 19:54 32.96835 -11.99271 38014 ft 471 kts 21°
2026-05-06 19:54 33.03134 -11.96949 38025 ft 470 kts 15°
2026-05-06 19:55 33.09365 -11.94822 38027 ft 470 kts 15°
2026-05-06 19:55 33.15684 -11.92658 38022 ft 470 kts 15°
2026-05-06 19:56 33.21990 -11.90506 38008 ft 470 kts 15°
2026-05-06 19:56 33.28304 -11.88351 37995 ft 470 kts 15°
2026-05-06 19:57 33.34604 -11.86196 37960 ft 470 kts 15°
2026-05-06 19:57 33.40919 -11.84030 37980 ft 471 kts 15°
2026-05-06 19:58 33.47188 -11.81879 37984 ft 471 kts 15°
2026-05-06 19:58 33.52480 -11.80061 37986 ft 471 kts 15°
2026-05-06 19:59 33.58700 -11.77922 38008 ft 471 kts 15°
2026-05-06 19:59 33.65012 -11.75748 38028 ft 470 kts 15°
2026-05-06 20:00 33.71211 -11.73610 38018 ft 470 kts 15°
2026-05-06 20:00 33.77512 -11.71434 38001 ft 470 kts 16°
2026-05-06 20:01 33.83849 -11.69242 37996 ft 470 kts 16°
2026-05-06 20:01 33.90150 -11.67058 37990 ft 470 kts 16°
2026-05-06 20:02 33.96358 -11.64904 37981 ft 470 kts 16°
2026-05-06 20:02 34.02646 -11.62718 37978 ft 471 kts 16°
2026-05-06 20:03 34.08982 -11.60513 37984 ft 471 kts 16°
2026-05-06 20:03 34.15301 -11.58313 38008 ft 471 kts 15°
2026-05-06 20:04 34.21569 -11.56130 38033 ft 470 kts 16°
2026-05-06 20:04 34.27897 -11.53911 38031 ft 470 kts 16°
2026-05-06 20:05 34.34130 -11.51724 37991 ft 470 kts 16°
2026-05-06 20:05 34.40401 -11.49524 37964 ft 470 kts 16°
2026-05-06 20:06 34.46668 -11.47324 37983 ft 471 kts 16°
2026-05-06 20:06 34.52994 -11.45102 38013 ft 470 kts 16°
2026-05-06 20:07 34.59257 -11.42896 38030 ft 470 kts 16°
2026-05-06 20:07 34.65607 -11.40654 38026 ft 470 kts 16°
2026-05-06 20:08 34.71898 -11.38430 38015 ft 470 kts 16°
2026-05-06 20:08 34.78155 -11.36208 37979 ft 470 kts 16°
2026-05-06 20:09 34.84488 -11.33958 37962 ft 471 kts 16°
2026-05-06 20:09 34.90763 -11.31733 37988 ft 471 kts 16°
2026-05-06 20:10 34.97012 -11.29512 38016 ft 470 kts 16°
2026-05-06 20:10 35.03187 -11.27311 38035 ft 470 kts 16°
2026-05-06 20:11 35.09436 -11.25080 37996 ft 470 kts 16°
2026-05-06 20:11 35.15766 -11.22817 37962 ft 470 kts 16°
2026-05-06 20:12 35.22061 -11.20562 37981 ft 471 kts 16°
2026-05-06 20:12 35.28296 -11.18326 38023 ft 470 kts 16°
2026-05-06 20:13 35.34484 -11.16103 38037 ft 470 kts 16°
2026-05-06 20:13 35.40684 -11.13872 37981 ft 470 kts 16°
2026-05-06 20:14 35.46813 -11.11662 37996 ft 470 kts 16°
2026-05-06 20:14 35.53176 -11.09363 38040 ft 470 kts 16°
2026-05-06 20:15 35.59425 -11.07102 38003 ft 470 kts 16°
2026-05-06 20:15 35.65657 -11.04845 37964 ft 470 kts 16°
2026-05-06 20:16 35.71865 -11.02593 37990 ft 471 kts 16°
2026-05-06 20:16 35.78164 -11.00304 38031 ft 470 kts 16°
2026-05-06 20:17 35.84498 -10.97998 38024 ft 470 kts 16°
2026-05-06 20:17 35.90757 -10.95718 38014 ft 470 kts 16°
2026-05-06 20:18 35.97080 -10.93637 37987 ft 469 kts
2026-05-06 20:18 36.03601 -10.92781 37981 ft 470 kts
2026-05-06 20:19 36.10079 -10.91998 38004 ft 470 kts
2026-05-06 20:19 36.16630 -10.91200 38021 ft 470 kts
2026-05-06 20:20 36.23178 -10.90415 38008 ft 471 kts
2026-05-06 20:20 36.29723 -10.89636 37994 ft 471 kts
2026-05-06 20:21 36.35166 -10.88988 38022 ft 471 kts
2026-05-06 20:21 36.42672 -10.87994 38005 ft 470 kts
2026-05-06 20:22 36.48105 -10.87250 37991 ft 469 kts
2026-05-06 20:22 36.54593 -10.86374 37962 ft 470 kts
2026-05-06 20:23 36.61133 -10.85494 38024 ft 470 kts
2026-05-06 20:23 36.67548 -10.84631 38032 ft 469 kts
2026-05-06 20:24 36.73999 -10.83762 37977 ft 470 kts
2026-05-06 20:24 36.80517 -10.82881 37988 ft 470 kts
2026-05-06 20:25 36.87035 -10.81997 38035 ft 470 kts
2026-05-06 20:25 36.93533 -10.81115 38028 ft 469 kts
2026-05-06 20:26 37.00030 -10.80232 37959 ft 470 kts
2026-05-06 20:26 37.06573 -10.79341 37986 ft 470 kts
2026-05-06 20:27 37.13013 -10.78463 38034 ft 470 kts
2026-05-06 20:27 37.19524 -10.77573 38022 ft 469 kts
2026-05-06 20:28 37.26045 -10.76680 37962 ft 470 kts
2026-05-06 20:28 37.31972 -10.75863 38014 ft 467 kts
2026-05-06 20:29 37.38448 -10.74997 38011 ft 469 kts
2026-05-06 20:29 37.44924 -10.74113 38036 ft 469 kts
2026-05-06 20:30 37.54708 -10.72760 37981 ft 470 kts
2026-05-06 20:31 37.61238 -10.71853 37988 ft 470 kts
2026-05-06 20:31 37.67756 -10.70947 38001 ft 470 kts
2026-05-06 20:32 37.74271 -10.70040 38015 ft 471 kts
2026-05-06 20:32 37.80820 -10.69127 38020 ft 471 kts
2026-05-06 20:33 37.87298 -10.68225 38013 ft 471 kts
2026-05-06 20:33 37.93809 -10.67316 38035 ft 470 kts
2026-05-06 20:34 38.00336 -10.66402 38020 ft 469 kts
2026-05-06 20:34 38.06894 -10.65485 37965 ft 470 kts
2026-05-06 20:35 38.13396 -10.64573 37991 ft 470 kts
2026-05-06 20:35 38.19846 -10.63666 38035 ft 470 kts
2026-05-06 20:36 38.26356 -10.62749 38028 ft 469 kts
2026-05-06 20:36 38.32843 -10.61830 37978 ft 470 kts
2026-05-06 20:37 38.39278 -10.60918 37990 ft 470 kts
2026-05-06 20:37 38.45731 -10.60009 38037 ft 470 kts
2026-05-06 20:38 38.52217 -10.59093 38024 ft 469 kts
2026-05-06 20:38 38.58724 -10.58170 37986 ft 470 kts
2026-05-06 20:39 38.65236 -10.57243 37987 ft 470 kts
2026-05-06 20:39 38.71582 -10.56339 37960 ft 470 kts
2026-05-06 20:40 38.78112 -10.55406 38037 ft 469 kts
2026-05-06 20:40 38.84586 -10.54502 38032 ft 464 kts
2026-05-06 20:41 38.91058 -10.53550 37959 ft 467 kts
2026-05-06 20:41 38.97532 -10.52620 38020 ft 469 kts
2026-05-06 20:42 39.04006 -10.51691 38035 ft 469 kts
2026-05-06 20:42 39.09468 -10.50909 37989 ft 469 kts
2026-05-06 20:43 39.15932 -10.50004 38058 ft 462 kts
2026-05-06 20:43 39.22380 -10.49068 37982 ft 464 kts
2026-05-06 20:44 39.28697 -10.48172 38009 ft 464 kts
2026-05-06 20:44 39.35071 -10.47235 38036 ft 466 kts
2026-05-06 20:45 39.41515 -10.46312 37986 ft 464 kts
2026-05-06 20:45 39.47873 -10.45377 38063 ft 460 kts
2026-05-06 20:46 39.54276 -10.44444 38009 ft 460 kts
2026-05-06 20:46 39.60731 -10.43514 37962 ft 467 kts
2026-05-06 20:47 39.66914 -10.42610 37997 ft 467 kts
2026-05-06 20:47 39.73329 -10.41652 37996 ft 470 kts
2026-05-06 20:48 39.79886 -10.40678 38042 ft 469 kts
2026-05-06 20:48 39.86369 -10.39719 38012 ft 469 kts
2026-05-06 20:49 39.92878 -10.38756 37958 ft 470 kts
2026-05-06 20:49 39.99388 -10.37787 37991 ft 470 kts
2026-05-06 20:50 40.05845 -10.36830 38042 ft 469 kts
2026-05-06 20:50 40.12273 -10.35883 38002 ft 466 kts
2026-05-06 20:51 40.18714 -10.34868 37980 ft 465 kts
2026-05-06 20:51 40.25175 -10.33906 38016 ft 469 kts
2026-05-06 20:52 40.31637 -10.32954 38036 ft 469 kts
2026-05-06 20:52 40.38050 -10.32005 37993 ft 469 kts
2026-05-06 20:53 40.44565 -10.31032 37963 ft 470 kts
2026-05-06 20:53 40.51056 -10.30058 38006 ft 470 kts
2026-05-06 20:54 40.57603 -10.29076 38040 ft 469 kts
2026-05-06 20:54 40.64121 -10.28096 38021 ft 470 kts
2026-05-06 20:55 40.70611 -10.27117 37989 ft 470 kts
2026-05-06 20:55 40.77153 -10.26134 37961 ft 470 kts
2026-05-06 20:56 40.83641 -10.25153 37978 ft 471 kts
2026-05-06 20:56 40.90132 -10.24167 37997 ft 471 kts
2026-05-06 20:57 40.96623 -10.23179 38037 ft 470 kts
2026-05-06 20:57 41.03066 -10.22195 38007 ft 469 kts
2026-05-06 20:58 41.09631 -10.21191 37963 ft 470 kts
2026-05-06 20:58 41.16104 -10.20200 37991 ft 470 kts
2026-05-06 20:59 41.22599 -10.19203 38028 ft 470 kts
2026-05-06 20:59 41.29054 -10.18211 38032 ft 469 kts
2026-05-06 21:00 41.35516 -10.17217 37964 ft 470 kts
2026-05-06 21:00 41.41999 -10.16216 37984 ft 470 kts
2026-05-06 21:01 41.48478 -10.15214 38028 ft 470 kts
2026-05-06 21:01 41.54990 -10.14204 38029 ft 470 kts
2026-05-06 21:02 41.61446 -10.13202 38004 ft 470 kts
2026-05-06 21:02 41.67967 -10.12188 37960 ft 470 kts
2026-05-06 21:03 41.74509 -10.11168 37982 ft 470 kts
2026-05-06 21:03 41.80998 -10.10155 38031 ft 470 kts
2026-05-06 21:04 41.87445 -10.09149 38029 ft 469 kts
2026-05-06 21:04 41.93943 -10.08136 38004 ft 470 kts
2026-05-06 21:05 42.00446 -10.07116 38008 ft 470 kts
2026-05-06 21:05 42.06963 -10.06005 38016 ft 471 kts
2026-05-06 21:06 42.13430 -10.04715 38008 ft 471 kts
2026-05-06 21:06 42.19917 -10.03442 37996 ft 472 kts
2026-05-06 21:07 42.25366 -10.02386 38006 ft 471 kts
2026-05-06 21:07 42.31835 -10.01137 37994 ft 471 kts
2026-05-06 21:08 42.38368 -9.99874 37989 ft 471 kts
2026-05-06 21:08 42.44819 -9.98625 37995 ft 471 kts
2026-05-06 21:09 42.51326 -9.97362 38009 ft 471 kts
2026-05-06 21:09 42.57825 -9.96097 38011 ft 471 kts
2026-05-06 21:10 42.64291 -9.94842 38002 ft 471 kts
2026-05-06 21:10 42.70832 -9.93567 37989 ft 471 kts
2026-05-06 21:11 42.77278 -9.92304 37990 ft 471 kts
2026-05-06 21:11 42.83794 -9.91021 38003 ft 471 kts
2026-05-06 21:12 42.90300 -9.89739 38015 ft 471 kts
2026-05-06 21:12 42.96787 -9.88460 38018 ft 471 kts
2026-05-06 21:13 43.03309 -9.87173 38020 ft 471 kts
2026-05-06 21:13 43.09794 -9.85889 38014 ft 471 kts
2026-05-06 21:14 43.16241 -9.84611 38003 ft 471 kts
2026-05-06 21:14 43.22748 -9.83317 37994 ft 471 kts
2026-05-06 21:15 43.29225 -9.82027 37986 ft 471 kts
2026-05-06 21:15 43.35677 -9.80739 37958 ft 471 kts
2026-05-06 21:16 43.42153 -9.79447 37981 ft 471 kts
2026-05-06 21:16 43.48651 -9.78147 37980 ft 471 kts
2026-05-06 21:17 43.55160 -9.76840 37982 ft 471 kts
2026-05-06 21:17 43.61643 -9.75527 37975 ft 471 kts 10°
2026-05-06 21:17 43.64796 -9.74352 37980 ft 471 kts 21°
2026-05-06 21:18 43.67854 -9.72514 37958 ft 471 kts 24°
2026-05-06 21:18 43.73723 -9.68900 38013 ft 471 kts 23°
2026-05-06 21:19 43.79725 -9.65277 38031 ft 471 kts 23°
2026-05-06 21:19 43.85758 -9.61656 38016 ft 471 kts 23°
2026-05-06 21:20 43.91772 -9.58044 38002 ft 472 kts 23°
2026-05-06 21:20 43.97804 -9.54412 37988 ft 472 kts 23°
2026-05-06 21:21 44.03830 -9.50770 37982 ft 472 kts 23°
2026-05-06 21:21 44.09884 -9.47100 37990 ft 471 kts 23°
2026-05-06 21:22 44.15899 -9.43446 38006 ft 471 kts 23°
2026-05-06 21:22 44.21928 -9.39774 38018 ft 471 kts 23°
2026-05-06 21:23 44.27955 -9.36096 38017 ft 472 kts 23°
2026-05-06 21:23 44.33945 -9.32432 38003 ft 472 kts 23°
2026-05-06 21:24 44.39973 -9.28736 37989 ft 472 kts 23°
2026-05-06 21:24 44.45978 -9.25045 37990 ft 472 kts 24°
2026-05-06 21:25 44.52016 -9.21322 37977 ft 472 kts 24°
2026-05-06 21:25 44.58026 -9.17610 37988 ft 471 kts 24°
2026-05-06 21:26 44.64000 -9.13915 37984 ft 472 kts 24°
2026-05-06 21:26 44.69983 -9.10205 37979 ft 472 kts 24°
2026-05-06 21:27 44.76020 -9.06459 37978 ft 471 kts 24°
2026-05-06 21:27 44.81992 -9.02744 37981 ft 471 kts 24°
2026-05-06 21:28 44.88010 -8.98987 37990 ft 471 kts 24°
2026-05-06 21:28 44.93721 -8.95414 37979 ft 471 kts 24°
2026-05-06 21:29 44.99740 -8.91640 37985 ft 471 kts 24°
2026-05-06 21:29 45.05725 -8.87876 37991 ft 471 kts 24°
2026-05-06 21:30 45.11700 -8.84105 37992 ft 471 kts 24°
2026-05-06 21:30 45.17665 -8.80340 37998 ft 471 kts 24°
2026-05-06 21:31 45.23665 -8.76544 38006 ft 471 kts 24°
2026-05-06 21:31 45.29596 -8.72782 38014 ft 471 kts 24°
2026-05-06 21:32 45.34578 -8.69614 37962 ft 471 kts 24°
2026-05-06 21:32 45.43540 -8.63902 37977 ft 471 kts 24°
2026-05-06 21:33 45.49573 -8.60045 37983 ft 471 kts 24°
2026-05-06 21:33 45.55565 -8.56206 37994 ft 471 kts 24°
2026-05-06 21:34 45.61522 -8.52380 38002 ft 471 kts 24°
2026-05-06 21:34 45.67533 -8.48510 38011 ft 471 kts 24°
2026-05-06 21:35 45.73501 -8.44659 37998 ft 471 kts 24°
2026-05-06 21:35 45.79440 -8.40817 38001 ft 471 kts 24°
2026-05-06 21:36 45.85417 -8.36945 38007 ft 471 kts 24°
2026-05-06 21:36 45.91395 -8.33061 38016 ft 471 kts 24°
2026-05-06 21:37 45.97376 -8.29165 38021 ft 471 kts 24°
2026-05-06 21:37 46.03255 -8.25326 38021 ft 472 kts 24°
2026-05-06 21:38 46.09309 -8.21363 38020 ft 471 kts 24°
2026-05-06 21:38 46.15284 -8.17443 38017 ft 472 kts 24°
2026-05-06 21:39 46.21285 -8.13496 38025 ft 471 kts 24°
2026-05-06 21:39 46.27248 -8.09565 38033 ft 471 kts 24°
2026-05-06 21:40 46.33245 -8.05601 38033 ft 470 kts 24°
2026-05-06 21:40 46.39095 -8.01726 37982 ft 471 kts 24°
2026-05-06 21:41 46.45034 -7.97783 37979 ft 471 kts 24°
2026-05-06 21:41 46.51027 -7.93794 37978 ft 471 kts 24°
2026-05-06 21:42 46.57004 -7.89806 37965 ft 471 kts 24°
2026-05-06 21:42 46.62955 -7.85825 37978 ft 471 kts 24°
2026-05-06 21:43 46.68923 -7.81823 37980 ft 471 kts 24°
2026-05-06 21:43 46.74915 -7.77796 37965 ft 471 kts 24°
2026-05-06 21:44 46.80868 -7.73785 37981 ft 471 kts 24°
2026-05-06 21:44 46.86836 -7.69754 37990 ft 471 kts 24°
2026-05-06 21:45 46.92769 -7.65736 37999 ft 471 kts 25°
2026-05-06 21:45 46.98662 -7.61736 38014 ft 471 kts 25°
2026-05-06 21:46 47.04666 -7.57650 38024 ft 471 kts 25°
2026-05-06 21:46 47.10574 -7.53620 38027 ft 471 kts 25°
2026-05-06 21:47 47.16544 -7.49538 38018 ft 471 kts 25°
2026-05-06 21:47 47.22453 -7.45487 38012 ft 471 kts 25°
2026-05-06 21:48 47.28417 -7.41389 37996 ft 471 kts 25°
2026-05-06 21:48 47.34352 -7.37300 37995 ft 471 kts 25°
2026-05-06 21:49 47.40273 -7.33210 38000 ft 471 kts 25°
2026-05-06 21:49 47.46232 -7.29084 38002 ft 471 kts 25°
2026-05-06 21:50 47.52201 -7.24941 38004 ft 471 kts 25°
2026-05-06 21:50 47.58120 -7.20822 38008 ft 471 kts 25°
2026-05-06 21:51 47.64058 -7.16679 38022 ft 471 kts 25°
2026-05-06 21:51 47.69933 -7.12570 38012 ft 471 kts 25°
2026-05-06 21:52 47.75869 -7.08408 38014 ft 471 kts 25°
2026-05-06 21:52 47.81814 -7.04230 38018 ft 471 kts 25°
2026-05-06 21:53 47.87705 -7.00078 38028 ft 471 kts 25°
2026-05-06 21:53 47.93633 -6.95889 38017 ft 471 kts 25°
2026-05-06 21:54 47.99311 -6.91868 37997 ft 471 kts 25°
2026-05-06 21:54 48.05197 -6.87688 37984 ft 471 kts 25°
2026-05-06 21:55 48.11093 -6.83492 37983 ft 471 kts 25°
2026-05-06 21:55 48.17007 -6.79270 37977 ft 471 kts 25°
2026-05-06 21:56 48.22888 -6.75063 37981 ft 471 kts 25°
2026-05-06 21:56 48.28818 -6.70809 37984 ft 471 kts 25°
2026-05-06 21:57 48.34724 -6.66561 37980 ft 471 kts 25°
2026-05-06 21:57 48.39678 -6.62990 38006 ft 472 kts 25°
2026-05-06 21:58 48.45601 -6.58709 38004 ft 472 kts 25°
2026-05-06 21:58 48.51519 -6.54421 37994 ft 472 kts 25°
2026-05-06 21:59 48.57411 -6.50134 37996 ft 472 kts 25°
2026-05-06 21:59 48.63341 -6.45815 37986 ft 472 kts 25°
2026-05-06 22:00 48.69232 -6.41519 37978 ft 472 kts 25°
2026-05-06 22:00 48.74810 -6.37436 38029 ft 471 kts 25°
2026-05-06 22:01 48.80708 -6.33107 38011 ft 472 kts 25°
2026-05-06 22:01 48.86623 -6.28755 38017 ft 472 kts 25°
2026-05-06 22:02 48.92520 -6.24404 38017 ft 472 kts 26°
2026-05-06 22:02 48.98458 -6.20011 38017 ft 472 kts 26°
2026-05-06 22:03 49.04285 -6.15689 38024 ft 471 kts 26°
2026-05-06 22:03 49.10191 -6.11296 38019 ft 472 kts 26°
2026-05-06 22:04 49.15942 -6.07008 38035 ft 471 kts 26°
2026-05-06 22:04 49.21893 -6.02560 38027 ft 471 kts 26°
2026-05-06 22:05 49.27757 -5.98165 38011 ft 471 kts 26°
2026-05-06 22:05 49.33651 -5.93739 38006 ft 471 kts 26°
2026-05-06 22:06 49.39476 -5.89356 37981 ft 471 kts 26°
2026-05-06 22:06 49.45373 -5.84906 37978 ft 471 kts 26°
2026-05-06 22:07 49.51143 -5.80070 37964 ft 472 kts 33°
2026-05-06 22:07 49.56339 -5.74040 37993 ft 472 kts 40°
2026-05-06 22:08 49.61363 -5.67540 38019 ft 472 kts 39°
2026-05-06 22:08 49.66446 -5.61027 38032 ft 471 kts 39°
2026-05-06 22:09 49.71360 -5.54677 38025 ft 471 kts 40°
2026-05-06 22:09 49.76148 -5.48459 37991 ft 471 kts 40°
2026-05-06 22:10 49.81146 -5.41943 37957 ft 472 kts 40°
2026-05-06 22:10 49.86172 -5.35374 37982 ft 472 kts 40°
2026-05-06 22:11 49.91188 -5.28799 38009 ft 472 kts 40°
2026-05-06 22:11 49.96142 -5.22286 38008 ft 472 kts 40°
2026-05-06 22:12 50.01145 -5.15693 38030 ft 472 kts 40°
2026-05-06 22:12 50.06160 -5.09064 38036 ft 472 kts 40°
2026-05-06 22:13 50.10988 -5.02663 37997 ft 471 kts 40°
2026-05-06 22:13 50.15937 -4.96093 37961 ft 471 kts 40°
2026-05-06 22:14 50.20947 -4.89413 37962 ft 472 kts 40°
2026-05-06 22:14 50.25935 -4.82739 37997 ft 472 kts 40°
2026-05-06 22:15 50.30940 -4.76028 38010 ft 472 kts 40°
2026-05-06 22:15 50.35916 -4.69337 38013 ft 472 kts 40°
2026-05-06 22:16 50.40894 -4.62624 37993 ft 473 kts 40°
2026-05-06 22:16 50.45678 -4.56154 37984 ft 473 kts 40°
2026-05-06 22:17 50.50585 -4.49500 38011 ft 473 kts 40°
2026-05-06 22:17 50.55535 -4.42767 38034 ft 473 kts 40°
2026-05-06 22:18 50.60514 -4.35975 38021 ft 472 kts 40°
2026-05-06 22:18 50.65409 -4.29280 38018 ft 471 kts 41°
2026-05-06 22:19 50.70018 -4.22957 37959 ft 472 kts 41°
2026-05-06 22:19 50.74153 -4.17270 38026 ft 473 kts 41°
2026-05-06 22:20 50.79118 -4.10423 38010 ft 473 kts 41°
2026-05-06 22:20 50.84103 -4.03529 38011 ft 473 kts 41°
2026-05-06 22:21 50.89037 -3.96685 37990 ft 474 kts 41°
2026-05-06 22:21 50.93926 -3.89884 37994 ft 473 kts 41°
2026-05-06 22:22 50.98844 -3.83022 38033 ft 473 kts 41°
2026-05-06 22:22 51.03591 -3.76379 38033 ft 472 kts 41°
2026-05-06 22:23 51.08432 -3.69586 38021 ft 474 kts 41°
2026-05-06 22:23 51.13424 -3.62559 38025 ft 474 kts 41°
2026-05-06 22:24 51.18046 -3.56035 37984 ft 474 kts 41°
2026-05-06 22:24 51.22939 -3.49109 37963 ft 472 kts 41°
2026-05-06 22:25 51.27859 -3.42122 38002 ft 472 kts 41°
2026-05-06 22:25 51.32718 -3.35203 38032 ft 472 kts 41°
2026-05-06 22:26 51.37359 -3.28575 38020 ft 471 kts 41°
2026-05-06 22:26 51.42256 -3.21561 37985 ft 471 kts 41°
2026-05-06 22:27 51.47025 -3.14710 37968 ft 472 kts 41°
2026-05-06 22:27 51.51954 -3.07608 37985 ft 472 kts 41°
2026-05-06 22:28 51.56796 -3.00610 37996 ft 472 kts 41°
2026-05-06 22:28 51.61652 -2.93571 37997 ft 472 kts 42°
2026-05-06 22:29 51.64114 -2.89995 37881 ft 469 kts 42°
2026-05-06 22:29 51.66261 -2.86871 37437 ft 467 kts 42°
2026-05-06 22:29 51.68716 -2.83294 36708 ft 467 kts 42°
2026-05-06 22:29 51.70664 -2.80452 36056 ft 466 kts 42°
2026-05-06 22:30 51.73081 -2.76922 35148 ft 467 kts 42°
2026-05-06 22:30 51.75496 -2.73389 34139 ft 470 kts 42°
2026-05-06 22:30 51.77908 -2.69855 33143 ft 472 kts 42°
2026-05-06 22:30 51.80354 -2.66266 32137 ft 473 kts 42°
2026-05-06 22:31 51.82794 -2.62679 31072 ft 475 kts 42°
2026-05-06 22:31 51.85254 -2.59058 30167 ft 474 kts 42°
2026-05-06 22:31 51.87659 -2.55512 29561 ft 466 kts 42°
2026-05-06 22:31 51.90053 -2.51976 28916 ft 461 kts 42°
2026-05-06 22:32 51.92425 -2.48469 28228 ft 456 kts 42°
2026-05-06 22:32 51.94746 -2.45031 27562 ft 451 kts 42°
2026-05-06 22:32 51.97029 -2.41646 26901 ft 447 kts 42°
2026-05-06 22:32 51.99314 -2.38252 26239 ft 442 kts 42°
2026-05-06 22:33 52.01383 -2.35173 25625 ft 438 kts 42°
2026-05-06 22:33 52.03588 -2.31888 24974 ft 434 kts 42°
2026-05-06 22:33 52.05837 -2.28535 24311 ft 429 kts 42°
2026-05-06 22:33 52.08007 -2.25293 23674 ft 425 kts 42°
2026-05-06 22:34 52.10152 -2.22085 23042 ft 421 kts 42°
2026-05-06 22:34 52.12286 -2.18889 22394 ft 417 kts 42°
2026-05-06 22:34 52.14423 -2.15683 21739 ft 413 kts 42°
2026-05-06 22:34 52.16309 -2.12852 21156 ft 409 kts 42°
2026-05-06 22:35 52.18387 -2.09726 20531 ft 406 kts 42°
2026-05-06 22:35 52.20443 -2.06630 20168 ft 399 kts 42°
2026-05-06 22:35 52.22483 -2.03555 20038 ft 404 kts 43°
2026-05-06 22:35 52.24546 -2.00439 20000 ft 403 kts 43°
2026-05-06 22:36 52.26621 -1.97303 19998 ft 403 kts 43°
2026-05-06 22:36 52.27557 -1.95887 19998 ft 403 kts 43°
2026-05-06 22:36 52.29590 -1.92808 20000 ft 403 kts 43°
2026-05-06 22:36 52.31668 -1.89657 20000 ft 403 kts 43°
2026-05-06 22:37 52.33730 -1.86527 20000 ft 401 kts 43°
2026-05-06 22:37 52.35673 -1.83572 20000 ft 388 kts 43°
2026-05-06 22:37 52.37652 -1.80557 19999 ft 388 kts 43°
2026-05-06 22:37 52.39670 -1.77481 20002 ft 390 kts 43°
2026-05-06 22:38 52.41413 -1.74821 19999 ft 389 kts 43°
2026-05-06 22:38 52.43363 -1.71841 19999 ft 389 kts 43°
2026-05-06 22:38 52.45330 -1.68833 20002 ft 389 kts 43°
2026-05-06 22:38 52.47334 -1.65761 20002 ft 389 kts 43°
2026-05-06 22:39 52.49303 -1.62742 19998 ft 390 kts 43°
2026-05-06 22:39 52.51301 -1.59672 19999 ft 389 kts 43°
2026-05-06 22:39 52.53272 -1.56640 19999 ft 390 kts 43°
2026-05-06 22:39 52.55265 -1.53572 19998 ft 390 kts 43°
2026-05-06 22:40 52.57230 -1.50542 20002 ft 389 kts 43°
2026-05-06 22:40 52.58542 -1.48519 20000 ft 389 kts 43°
2026-05-06 22:40 52.61415 -1.45247 19992 ft 388 kts 25°
2026-05-06 22:40 52.63857 -1.44106 20000 ft 389 kts
2026-05-06 22:41 52.67984 -1.44626 19988 ft 387 kts 340°
2026-05-06 22:41 52.70403 -1.46123 20004 ft 388 kts 338°
2026-05-06 22:41 52.72746 -1.47789 20012 ft 387 kts 336°
2026-05-06 22:42 52.75242 -1.49475 19966 ft 382 kts 336°
2026-05-06 22:42 52.77662 -1.50992 19842 ft 369 kts 340°
2026-05-06 22:42 52.80047 -1.52403 19643 ft 359 kts 340°
2026-05-06 22:42 52.82368 -1.53736 19169 ft 356 kts 341°
2026-05-06 22:43 52.83462 -1.54360 18928 ft 354 kts 343°
2026-05-06 22:43 52.85825 -1.55710 18276 ft 352 kts 344°
2026-05-06 22:43 52.88110 -1.57016 17680 ft 349 kts 341°
2026-05-06 22:43 52.90429 -1.58349 16994 ft 345 kts 337°
2026-05-06 22:44 52.92478 -1.59536 16445 ft 343 kts 342°
2026-05-06 22:44 52.94727 -1.60801 15934 ft 340 kts 340°
2026-05-06 22:44 52.96841 -1.62030 15443 ft 337 kts 336°
2026-05-06 22:44 52.98981 -1.63277 14940 ft 335 kts 340°
2026-05-06 22:45 53.01200 -1.64556 14459 ft 333 kts 340°
2026-05-06 22:45 53.03379 -1.65831 13980 ft 330 kts 338°
2026-05-06 22:45 53.05387 -1.67617 13504 ft 328 kts 324°
2026-05-06 22:45 53.07059 -1.70142 13022 ft 325 kts 310°
2026-05-06 22:46 53.08505 -1.73041 12566 ft 323 kts 310°
2026-05-06 22:46 53.09947 -1.75855 12197 ft 317 kts 310°
2026-05-06 22:46 53.11212 -1.78294 11972 ft 309 kts 310°
2026-05-06 22:46 53.12554 -1.80880 11591 ft 307 kts 310°
2026-05-06 22:47 53.13987 -1.83644 11149 ft 304 kts 310°
2026-05-06 22:47 53.15339 -1.86263 10730 ft 302 kts 310°
2026-05-06 22:47 53.16733 -1.88976 10284 ft 301 kts 310°
2026-05-06 22:47 53.18086 -1.91612 9858 ft 299 kts 310°
2026-05-06 22:48 53.19425 -1.94226 9435 ft 297 kts 310°
2026-05-06 22:48 53.20578 -1.96479 9061 ft 296 kts 310°
2026-05-06 22:48 53.21886 -1.99044 9009 ft 292 kts 311°
2026-05-06 22:48 53.23162 -2.01495 8829 ft 273 kts 316°
2026-05-06 22:49 53.24734 -2.03125 8412 ft 263 kts 342°
2026-05-06 22:49 53.26517 -2.03336 8094 ft 253 kts
2026-05-06 22:49 53.28217 -2.03028 7768 ft 244 kts
2026-05-06 22:49 53.29889 -2.02650 7420 ft 236 kts
2026-05-06 22:50 53.31462 -2.02270 7164 ft 224 kts
2026-05-06 22:50 53.32954 -2.01905 6720 ft 221 kts
2026-05-06 22:50 53.34501 -2.01526 6266 ft 219 kts
2026-05-06 22:50 53.35737 -2.01231 5898 ft 217 kts
2026-05-06 22:51 53.37219 -2.00890 5469 ft 214 kts
2026-05-06 22:51 53.38716 -2.00565 5005 ft 213 kts
2026-05-06 22:51 53.40163 -2.00298 4551 ft 211 kts
2026-05-06 22:51 53.41608 -2.00127 4105 ft 210 kts
2026-05-06 22:52 53.43096 -1.99990 3673 ft 208 kts
2026-05-06 22:52 53.44474 -2.00009 3507 ft 203 kts 349°
2026-05-06 22:52 53.45754 -2.01203 3467 ft 219 kts 314°
2026-05-06 22:52 53.46436 -2.03488 3465 ft 226 kts 279°
2026-05-06 22:53 53.46246 -2.06091 3491 ft 236 kts 246°
2026-05-06 22:53 53.45195 -2.08269 3503 ft 247 kts 217°
2026-05-06 22:53 53.43798 -2.09942 3490 ft 251 kts 214°
2026-05-06 22:53 53.42331 -2.11685 3518 ft 250 kts 215°
2026-05-06 22:54 53.40929 -2.13339 3496 ft 249 kts 215°
2026-05-06 22:54 53.39521 -2.15001 3483 ft 250 kts 215°
2026-05-06 22:54 53.38066 -2.16718 3487 ft 251 kts 215°
2026-05-06 22:54 53.36703 -2.18317 3498 ft 248 kts 215°
2026-05-06 22:55 53.35421 -2.19819 3501 ft 249 kts 215°
2026-05-06 22:55 53.34031 -2.21452 3411 ft 246 kts 214°
2026-05-06 22:55 53.32614 -2.23130 3086 ft 245 kts 215°
2026-05-06 22:55 53.31251 -2.24776 3002 ft 249 kts 216°
2026-05-06 22:56 53.30108 -2.26283 2995 ft 249 kts 218°
2026-05-06 22:56 53.28762 -2.28105 2998 ft 249 kts 220°
2026-05-06 22:56 53.27520 -2.30141 3014 ft 251 kts 226°
2026-05-06 22:56 53.26330 -2.32228 2998 ft 250 kts 226°
2026-05-06 22:57 53.25133 -2.34321 2988 ft 249 kts 226°
2026-05-06 22:57 53.23940 -2.36408 3002 ft 249 kts 226°
2026-05-06 22:57 53.22734 -2.38525 3000 ft 249 kts 226°
2026-05-06 22:57 53.21634 -2.40718 2982 ft 249 kts 242°
2026-05-06 22:58 53.21220 -2.43481 2998 ft 245 kts 274°
2026-05-06 22:58 53.21559 -2.45852 2993 ft 244 kts 299°
2026-05-06 22:58 53.22624 -2.48012 2962 ft 240 kts 328°
2026-05-06 22:58 53.24159 -2.48753 2862 ft 225 kts
2026-05-06 22:59 53.25519 -2.47776 2753 ft 207 kts 40°
2026-05-06 22:59 53.26520 -2.46141 2648 ft 195 kts 50°
2026-05-06 22:59 53.27308 -2.44552 2563 ft 189 kts 52°
2026-05-06 22:59 53.28130 -2.42816 2388 ft 193 kts 52°
2026-05-06 23:00 53.28944 -2.41106 2146 ft 182 kts 53°
2026-05-06 23:00 53.29738 -2.39428 1932 ft 176 kts 53°
2026-05-06 23:00 53.30442 -2.37941 1712 ft 155 kts 54°
2026-05-06 23:00 53.31064 -2.36626 1495 ft 136 kts 54°
2026-05-06 23:01 53.31610 -2.35476 1310 ft 125 kts 53°
2026-05-06 23:01 53.32169 -2.34290 1125 ft 129 kts 53°
2026-05-06 23:01 53.32691 -2.33194 924 ft 132 kts 53°
2026-05-06 23:01 53.33270 -2.31967 744 ft 128 kts 52°
2026-05-06 23:02 53.33617 -2.31233 635 ft 133 kts 52°
2026-05-06 23:02 53.34204 -2.29995 473 ft 136 kts 54°
2026-05-06 23:02 53.34787 -2.28718 372 ft 132 kts 52°
2026-05-06 23:02 53.35305 -2.27620 239 ft 106 kts 50°
2026-05-06 23:03 53.35686 -2.26849 247 ft 54 kts 51°
2026-05-06 23:03 53.35832 -2.26688 250 ft 11 kts 349°
2026-05-06 23:03 53.35924 -2.26702 250 ft 13 kts 339°
2026-05-06 23:03 53.35933 -2.26715 250 ft 1 kts 305°
2026-05-06 23:04 53.35924 -2.26777 249 ft 7 kts 245°
2026-05-06 23:04 53.35900 -2.26838 248 ft 11 kts 237°
2026-05-06 23:04 53.35844 -2.26960 247 ft 15 kts 230°
2026-05-06 23:04 53.35779 -2.27124 245 ft 19 kts 236°
2026-05-06 23:05 53.35690 -2.27314 242 ft 22 kts 221°
2026-05-06 23:05 53.35626 -2.27437 241 ft 14 kts 234°
2026-05-06 23:05 53.35658 -2.27555 240 ft 13 kts 320°
2026-05-06 23:05 53.35735 -2.27634 240 ft 11 kts 12°
2026-05-06 23:06 53.35789 -2.27544 241 ft 11 kts 54°
2026-05-06 23:06 53.35804 -2.27519 242 ft 8 kts 43°
2026-05-06 23:06 53.35816 -2.27492 242 ft 0 kts 53°